Location: Shenandoah County Park
(38.9356°N, 78.4524°W)
Time: 06:49:21
(UTC-04:00)

Vanguard 1 Rocket - Pass Details

Date: 10 February 2023
Orbit: 652 x 4223 km, 34.3° (Epoch: 26 March)

Event Time Altitude Azimuth Distance (km) Brightness Sun altitude
Rises 13:49:40 0° 271° (W) 4,537 11.2 33.5°
Reaches altitude 10° 13:52:05 10° 269° (W) 3,868 11.0 33.3°
Maximum altitude 14:02:52 69° 189° (S) 2,648 10.7 32.4°
Drops below altitude 10° 14:23:58 10° 111° (ESE) 6,987 11.9 30.3°
Sets 14:30:12 0° 110° (ESE) 8,293 12.2 29.7°
